TimeCDT,TemperatureF,Dew PointF,Humidity,Sea Level PressureIn,VisibilityMPH,Wind Direction,Wind SpeedMPH,Gust SpeedMPH,PrecipitationIn,Events,Conditions,WindDirDegrees,DateUTC
12:15 AM,-9999,-9999,N/A,29.80,0.2,East,5.8,-,N/A,,Unknown,100,2013-06-10 05:15:00
12:35 AM,-9999,-9999,N/A,29.80,1.8,East,5.8,-,N/A,,Mostly Cloudy,100,2013-06-10 05:35:00
12:55 AM,-9999,-9999,N/A,29.80,5.0,SE,8.1,-,N/A,,Overcast,130,2013-06-10 05:55:00
1:15 AM,-9999,-9999,N/A,29.80,10.0,SE,6.9,-,N/A,,Mostly Cloudy,130,2013-06-10 06:15:00
1:35 AM,-9999,-9999,N/A,29.79,5.0,ESE,5.8,-,N/A,,Scattered Clouds,120,2013-06-10 06:35:00
1:55 AM,-9999,-9999,N/A,29.79,5.0,Calm,Calm,-,N/A,,Clear,0,2013-06-10 06:55:00
2:15 AM,-9999,-9999,N/A,29.79,4.0,Calm,Calm,-,N/A,,Clear,0,2013-06-10 07:15:00
2:35 AM,-9999,-9999,N/A,29.79,4.0,SSE,3.5,-,N/A,,Clear,150,2013-06-10 07:35:00
2:55 AM,-9999,-9999,N/A,29.79,4.0,Calm,Calm,-,N/A,,Clear,0,2013-06-10 07:55:00
3:15 AM,57.2,55.4,94,29.78,1.0,SSE,3.5,-,N/A,,Clear,150,2013-06-10 08:15:00
3:35 AM,55.4,51.8,88,29.78,0.2,Calm,Calm,-,N/A,,Unknown,0,2013-06-10 08:35:00
3:55 AM,-9999,-9999,N/A,29.77,0.2,Calm,Calm,-,N/A,,Unknown,0,2013-06-10 08:55:00
4:15 AM,-9999,-9999,N/A,29.78,0.2,North,3.5,-,N/A,,Unknown,10,2013-06-10 09:15:00
4:35 AM,-9999,-9999,N/A,29.78,0.5,NNE,3.5,-,N/A,,Unknown,20,2013-06-10 09:35:00
4:55 AM,53.6,51.8,94,29.79,0.2,East,6.9,-,N/A,,Unknown,80,2013-06-10 09:55:00
5:15 AM,55.4,51.8,88,29.80,0.2,East,4.6,-,N/A,,Unknown,80,2013-06-10 10:15:00
5:35 AM,55.4,53.6,94,29.79,0.2,ENE,5.8,-,N/A,,Unknown,70,2013-06-10 10:35:00
5:55 AM,55.4,53.6,94,29.80,0.2,NE,4.6,-,N/A,,Unknown,40,2013-06-10 10:55:00
6:15 AM,57.2,53.6,88,29.80,0.2,ENE,4.6,-,N/A,,Unknown,70,2013-06-10 11:15:00
6:35 AM,57.2,55.4,94,29.81,0.2,East,5.8,-,N/A,,Unknown,80,2013-06-10 11:35:00
6:55 AM,59.0,55.4,88,29.82,0.2,ENE,3.5,-,N/A,,Unknown,70,2013-06-10 11:55:00
7:15 AM,60.8,57.2,88,29.82,0.2,Calm,Calm,-,N/A,,Overcast,0,2013-06-10 12:15:00
7:35 AM,60.8,57.2,88,29.83,1.2,Calm,Calm,-,N/A,,Overcast,0,2013-06-10 12:35:00
7:55 AM,60.8,57.2,88,29.83,0.2,NW,3.5,-,N/A,,Overcast,320,2013-06-10 12:55:00
8:15 AM,62.6,59.0,88,29.83,0.2,NW,5.8,-,N/A,,Overcast,320,2013-06-10 13:15:00
8:35 AM,62.6,59.0,88,29.84,1.8,NW,5.8,-,N/A,,Overcast,320,2013-06-10 13:35:00
8:55 AM,62.6,59.0,88,29.84,3.0,NNW,4.6,-,N/A,,Overcast,330,2013-06-10 13:55:00
9:15 AM,62.6,59.0,88,29.84,5.0,North,5.8,-,N/A,,Overcast,360,2013-06-10 14:15:00
9:35 AM,62.6,59.0,88,29.84,5.0,NNE,4.6,-,N/A,,Overcast,20,2013-06-10 14:35:00
9:55 AM,62.6,59.0,88,29.84,5.0,Calm,Calm,-,N/A,,Overcast,0,2013-06-10 14:55:00
10:15 AM,64.4,60.8,88,29.84,8.0,West,3.5,-,N/A,,Overcast,270,2013-06-10 15:15:00
10:35 AM,64.4,60.8,88,29.85,10.0,West,5.8,-,N/A,,Overcast,280,2013-06-10 15:35:00
10:55 AM,64.4,60.8,88,29.86,10.0,WNW,3.5,-,N/A,,Overcast,300,2013-06-10 15:55:00
11:15 AM,66.2,60.8,83,29.86,10.0,West,6.9,-,N/A,,Mostly Cloudy,270,2013-06-10 16:15:00
11:35 AM,66.2,60.8,83,29.86,10.0,West,8.1,-,N/A,,Scattered Clouds,280,2013-06-10 16:35:00
11:55 AM,68.0,62.6,83,29.87,10.0,West,6.9,-,N/A,,Scattered Clouds,260,2013-06-10 16:55:00
12:15 PM,68.0,60.8,78,29.86,10.0,West,9.2,-,N/A,,Scattered Clouds,270,2013-06-10 17:15:00
12:35 PM,69.8,60.8,73,29.86,10.0,West,10.4,17.3,N/A,,Partly Cloudy,260,2013-06-10 17:35:00
12:55 PM,69.8,60.8,73,29.87,10.0,West,13.8,-,N/A,,Scattered Clouds,280,2013-06-10 17:55:00
1:15 PM,69.8,60.8,73,29.87,10.0,West,10.4,16.1,N/A,,Scattered Clouds,280,2013-06-10 18:15:00
1:35 PM,71.6,60.8,69,29.86,10.0,West,12.7,-,N/A,,Partly Cloudy,260,2013-06-10 18:35:00
1:55 PM,73.4,60.8,65,29.87,10.0,West,11.5,-,N/A,,Scattered Clouds,270,2013-06-10 18:55:00
2:15 PM,73.4,60.8,65,29.86,10.0,West,8.1,-,N/A,,Partly Cloudy,280,2013-06-10 19:15:00
2:35 PM,73.4,60.8,65,29.86,10.0,West,10.4,18.4,N/A,,Scattered Clouds,270,2013-06-10 19:35:00
2:55 PM,75.2,60.8,61,29.87,10.0,WNW,10.4,-,N/A,,Scattered Clouds,300,2013-06-10 19:55:00
3:15 PM,75.2,62.6,65,29.87,10.0,West,9.2,-,N/A,,Mostly Cloudy,260,2013-06-10 20:15:00
3:35 PM,75.2,60.8,61,29.86,10.0,West,4.6,-,N/A,,Partly Cloudy,270,2013-06-10 20:35:00
3:55 PM,75.2,60.8,61,29.86,10.0,West,10.4,-,N/A,,Partly Cloudy,280,2013-06-10 20:55:00
4:15 PM,77.0,60.8,57,29.87,10.0,West,11.5,17.3,N/A,,Partly Cloudy,270,2013-06-10 21:15:00
4:35 PM,77.0,60.8,57,29.87,10.0,West,12.7,19.6,N/A,,Scattered Clouds,280,2013-06-10 21:35:00
4:55 PM,77.0,60.8,57,29.87,10.0,WNW,13.8,-,N/A,,Partly Cloudy,300,2013-06-10 21:55:00
5:15 PM,75.2,59.0,57,29.86,10.0,West,13.8,-,N/A,,Partly Cloudy,270,2013-06-10 22:15:00
5:35 PM,-9999,-9999,N/A,29.86,10.0,WNW,16.1,19.6,N/A,,Partly Cloudy,290,2013-06-10 22:35:00
5:55 PM,-9999,-9999,N/A,29.86,10.0,WNW,15.0,-,N/A,,Clear,300,2013-06-10 22:55:00
6:15 PM,-9999,-9999,N/A,29.87,10.0,WNW,11.5,-,N/A,,Clear,300,2013-06-10 23:15:00
6:35 PM,75.2,59.0,57,29.87,10.0,NW,8.1,-,N/A,,Clear,320,2013-06-10 23:35:00
6:55 PM,-9999,-9999,N/A,29.86,10.0,NNW,9.2,-,N/A,,Clear,330,2013-06-10 23:55:00
7:15 PM,-9999,-9999,N/A,29.87,10.0,NNW,9.2,-,N/A,,Clear,330,2013-06-11 00:15:00
7:35 PM,73.4,59.0,61,29.87,10.0,NNW,8.1,-,N/A,,Clear,340,2013-06-11 00:35:00
7:55 PM,71.6,59.0,64,29.88,10.0,NNW,6.9,-,N/A,,Clear,330,2013-06-11 00:55:00
8:15 PM,69.8,60.8,73,29.87,10.0,North,5.8,-,N/A,,Clear,350,2013-06-11 01:15:00
8:35 PM,69.8,60.8,73,29.87,9.0,North,5.8,-,N/A,,Clear,360,2013-06-11 01:35:00
8:55 PM,68.0,60.8,78,29.88,10.0,NNW,4.6,-,N/A,,Clear,340,2013-06-11 01:55:00
9:15 PM,68.0,59.0,73,29.88,10.0,NNW,4.6,-,N/A,,Clear,340,2013-06-11 02:15:00
9:35 PM,68.0,59.0,73,29.89,10.0,North,3.5,-,N/A,,Clear,350,2013-06-11 02:35:00
9:55 PM,66.2,57.2,73,29.89,10.0,North,3.5,-,N/A,,Clear,350,2013-06-11 02:55:00
10:15 PM,-9999,-9999,N/A,29.89,10.0,NNW,3.5,-,N/A,,Clear,330,2013-06-11 03:15:00
10:35 PM,-9999,-9999,N/A,29.90,10.0,WNW,3.5,-,N/A,,Clear,300,2013-06-11 03:35:00
10:55 PM,-9999,-9999,N/A,29.90,10.0,WSW,3.5,-,N/A,,Clear,250,2013-06-11 03:55:00
11:15 PM,64.4,57.2,77,29.91,10.0,Calm,Calm,-,N/A,,Clear,0,2013-06-11 04:15:00
11:35 PM,64.4,57.2,77,29.90,10.0,West,3.5,-,N/A,,Clear,270,2013-06-11 04:35:00
11:55 PM,62.6,57.2,82,29.91,8.0,Calm,Calm,-,N/A,,Clear,0,2013-06-11 04:55:00